Location: Star Camp Observatory
(34.2910°N, 116.3827°W)
Time: 04:46:17
(UTC-08:00)

Envisat - Pass Details

Date: 25 November 2019
Orbit: 764 x 766 km, 98.1° (Epoch: 14 December)

Event Time Altitude Azimuth Distance (km) Brightness Sun altitude
Rises 18:50:39 0° 201° (SSW) 3,215 6.6 -27.3°
Reaches altitude 10° 18:53:29 10° 217° (SW) 2,293 6.0 -27.9°
Maximum altitude 18:57:14 21° 265° (W) 1,676 5.5 -28.6°
Drops below altitude 10° 19:01:00 10° 314° (NW) 2,303 5.9 -29.4°
Sets 19:03:53 0° 330° (NNW) 3,234 6.5 -30.0°
